Quincy, IL

4:10 PM CST on December 07, 2019 (GMT -0600)
Quincy Regional-Baldwin

Weather History for KUIN - July, 2019

Change the Weather History Date:

Monday, July 29, 2019

  Actual Average Record
Temperature  
Mean Temperature 77 °F 76 °F  
Max Temperature 86 °F 86 °F 105 °F (1931)
Min Temperature 68 °F 66 °F 50 °F (2013)
Degree Days  
Heating Degree Days 0 0  
Month to date heating degree days 0 0  
Since 1 June heating degree days 5 16  
Since 1 July heating degree days 0 0  
Cooling Degree Days 12 11  
Month to date cooling degree days 420 319  
Year to date cooling degree days 767 632  
Since 1 June cooling degree days 657 546  
Growing Degree Days 27 (Base 50)    
Moisture  
Dew Point 66 °F    
Average Humidity 71    
Maximum Humidity 93    
Minimum Humidity 48    
Precipitation  
Precipitation 0.43 in 0.11 in 1.82 in (2018)
Month to date precipitation 1.56 3.79  
Year to date precipitation 24.96 21.87  
Sea Level Pressure  
Sea Level Pressure 29.92 in    
Wind  
Wind Speed 8 mph (WNW)    
Max Wind Speed 16 mph    
Max Gust Speed 21 mph    
Visibility 10 miles    
Events      
T = Trace of Precipitation, MM = Missing Value Source: NWS Daily Summary

Daily Weather History Graph

Daily Weather History Graph

Search for Another Location

Airport or City:

Astronomy

Jul. 29, 2019 Rise Set
Actual Time 6:00 AM CDT 8:21 PM CDT
Civil Twilight 5:29 AM CDT 8:52 PM CDT
Nautical Twilight 4:52 AM CDT 9:29 PM CDT
Astronomical Twilight 4:10 AM CDT 10:11 PM CDT
Moon 3:12 AM CDT (7/29) 6:25 PM CDT (7/29)
Length of Visible Light 15h 22m
Length of Day
14h 21m
Waning Crescent, 8% of the Moon is Illuminated
Jul 29
Waning Crescent
Jul 31
New
Aug 7
First Quarter
Aug 15
Full
Aug 23
Last Quarter

Hourly Weather History & Observations

Time (CDT) Temp. Heat Index Dew Point Humidity Pressure Visibility Wind Dir Wind Speed Gust Speed Precip Events Conditions
7:54 AM 71.1 °F - 69.1 °F 93% 29.90 in 10.0 mi SSW 6.9 mph - 0.01 in   Mostly Cloudy
8:21 AM 71.1 °F - 69.1 °F 93% 29.92 in 10.0 mi SW 6.9 mph - N/A   Partly Cloudy
8:47 AM 72.0 °F - 69.1 °F 91% 29.94 in 10.0 mi West 9.2 mph - N/A   Mostly Cloudy
8:54 AM 72.0 °F - 68.0 °F 87% 29.92 in 10.0 mi WSW 9.2 mph - N/A   Mostly Cloudy
9:30 AM 73.0 °F - 68.0 °F 84% 29.94 in 10.0 mi WSW 8.1 mph - N/A   Scattered Clouds
9:45 AM 73.9 °F - 69.1 °F 85% 29.94 in 10.0 mi West 8.1 mph - N/A   Mostly Cloudy
9:54 AM 73.0 °F - 68.0 °F 84% 29.93 in 10.0 mi WSW 6.9 mph - N/A   Mostly Cloudy
10:54 AM 75.9 °F - 68.0 °F 76% 29.93 in 10.0 mi West 4.6 mph - N/A   Overcast
11:54 AM 79.0 °F - 68.0 °F 69% 29.92 in 10.0 mi WSW 9.2 mph - N/A   Overcast
12:19 PM 79.0 °F - 68.0 °F 69% 29.94 in 10.0 mi West 9.2 mph - N/A   Overcast
12:54 PM 80.1 °F 82.9 °F 69.1 °F 69% 29.91 in 10.0 mi WNW 9.2 mph - N/A   Scattered Clouds
1:54 PM 82.9 °F 85.8 °F 68.0 °F 60% 29.91 in 10.0 mi NW 9.2 mph - N/A   Scattered Clouds
2:54 PM 84.0 °F 86.5 °F 66.9 °F 56% 29.90 in 10.0 mi NW 11.5 mph - N/A   Scattered Clouds
3:54 PM 84.0 °F 85.8 °F 64.9 °F 53% 29.89 in 10.0 mi NW 10.4 mph - N/A   Partly Cloudy
4:54 PM 84.9 °F 86.6 °F 64.9 °F 51% 29.90 in 10.0 mi NW 12.7 mph - N/A   Clear
5:54 PM 84.0 °F 84.9 °F 63.0 °F 49% 29.90 in 10.0 mi NNW 11.5 mph - N/A   Clear
6:54 PM 82.9 °F 84.4 °F 64.0 °F 53% 29.90 in 10.0 mi NW 5.8 mph - N/A   Clear
7:54 PM 79.0 °F - 64.0 °F 60% 29.92 in 10.0 mi NW 6.9 mph - N/A   Clear
8:54 PM 73.9 °F - 63.0 °F 68% 29.93 in 10.0 mi NNW 5.8 mph - N/A   Clear
9:54 PM 75.0 °F - 62.1 °F 64% 29.95 in 10.0 mi Calm Calm - N/A   Clear
10:54 PM 70.0 °F - 64.9 °F 84% 29.97 in 10.0 mi Calm Calm - N/A   Clear
11:54 PM 69.1 °F - 63.0 °F 81% 29.98 in 10.0 mi NNW 6.9 mph - N/A   Clear